INNOSAT 3 (RS92S0)

Last updated on Sun Jun 21 2026 00:03:20 GMT+0000 (Coordinated Universal Time)

1 64894U 25155U 26171.42361041 .00031450 00000+0 68898-3 0 9991 2 64894 97.4490 142.9971 0006971 143.2163 216.9565 15.44025197 81463
UTC large
Height (km)
Speed (km/s)
/
Latitude / Longitude
Inclination (degrees)
Orbital Period (minutes)
Azimuth
Elevation
Range (km)
Doppler Factor

Next 0 passes for location: London (51.5072 / 0.1276)

No passes found over London.
INNOSAT 3 (RS92S0)